CW9825 Weather Reports


time (UTC)temp
C
wind
direction
speed
KPH
gust
KPH
rain 1hr
cm
rain 24hr
cm
rain mn
cm
humidity
%
barometer
mb
20260905091555 18 94 3.2 12.9 0.00 0.00 0.00 94 1013.8
20260905091048 18 104 4.8 12.9 0.00 0.00 0.00 94 1013.9
20260905090548 18 102 1.6 12.9 0.00 0.00 0.00 94 1013.9
20260905090048 18 91 4.8 12.9 0.00 0.00 0.00 93 1013.8
20260905085548 18 111 3.2 12.9 0.00 0.00 0.00 93 1013.9
20260905085047 18 118 3.2 12.9 0.00 0.00 0.00 93 1013.8
20260905084558 18 80 3.2 11.3 0.00 0.00 0.00 93 1013.9
20260905084048 18 98 6.4 12.9 0.00 0.00 0.00 93 1014.1
20260905083545 18 84 4.8 12.9 0.00 0.00 0.00 93 1014.0
20260905083045 18 103 3.2 11.3 0.00 0.00 0.00 93 1014.1
20260905082545 18 107 3.2 12.9 0.00 0.00 0.00 93 1014.2
20260905082043 18 80 4.8 12.9 0.00 0.00 0.00 93 1014.3
20260905081543 18 90 3.2 12.9 0.00 0.00 0.00 93 1014.2
20260905081042 18 76 1.6 9.7 0.00 0.00 0.00 92 1014.3
20260905080541 18 133 1.6 9.7 0.00 0.00 0.00 92 1014.4
20260905080039 18 90 3.2 9.7 0.00 0.00 0.00 92 1014.5
20260905075538 18 136 3.2 8.0 0.00 0.00 0.00 92 1014.9
20260905075042 19 141 3.2 11.3 0.00 0.00 0.00 92 1014.9
20260905074538 19 99 1.6 12.9 0.00 0.00 0.00 92 1015.0
20260905074037 19 207 3.2 14.5 0.00 0.00 0.00 92 1014.8
20260905073536 19 94 4.8 14.5 0.00 0.00 0.00 92 1014.7
20260905073035 19 132 3.2 14.5 0.00 0.00 0.00 92 1014.6
20260905072534 19 94 4.8 12.9 0.00 0.00 0.00 92 1014.6
20260905072034 19 74 3.2 14.5 0.00 0.00 0.00 92 1014.7
20260905071537 19 70 6.4 14.5 0.00 0.00 0.00 92 1014.8
20260905071034 19 82 6.4 12.9 0.00 0.00 0.00 92 1014.8
20260905070533 19 111 4.8 11.3 0.00 0.00 0.00 91 1014.8
20260905070033 20 140 1.6 11.3 0.00 0.00 0.00 91 1015.0
20260905065534 20 54 3.2 8.0 0.00 0.00 0.00 91 1015.1
20260905065032 20 91 4.8 11.3 0.00 0.00 0.00 91 1015.1
20260905064532 20 173 4.8 11.3 0.00 0.00 0.00 91 1015.2
20260905064031 20 120 3.2 9.7 0.00 0.00 0.00 91 1015.1
20260905063530 20 93 3.2 12.9 0.00 0.00 0.00 91 1015.1
20260905063031 20 68 3.2 12.9 0.00 0.00 0.00 91 1015.0
20260905062531 20 85 6.4 12.9 0.00 0.00 0.00 90 1015.0
20260905062030 20 129 1.6 9.7 0.00 0.00 0.00 90 1015.2
20260905061544 20 88 1.6 9.7 0.00 0.00 0.00 90 1015.1
20260905061028 20 105 1.6 9.7 0.00 0.00 0.00 90 1015.1
20260905060528 20 138 3.2 8.0 0.00 0.00 0.00 90 1015.3
20260905060047 20 149 4.8 9.7 0.00 0.00 0.00 89 1015.3
20260905055527 20 111 3.2 9.7 0.00 0.00 0.00 89 1015.2
20260905055026 20 165 4.8 12.9 0.00 0.00 0.00 89 1015.2
20260905054534 20 56 4.8 16.1 0.00 0.00 0.00 89 1014.9
20260905054024 20 128 8.0 17.7 0.00 0.00 0.00 89 1014.7
20260905053524 20 116 6.4 17.7 0.00 0.00 0.00 88 1014.7
20260905053022 20 84 4.8 16.1 0.00 0.00 0.00 88 1014.7
20260905052521 21 74 6.4 14.5 0.00 0.00 0.00 88 1014.7
20260905052021 21 355 3.2 14.5 0.00 0.00 0.00 88 1014.8
20260905051530 21 69 8.0 16.1 0.00 0.00 0.00 88 1014.6
20260905051022 21 88 8.0 16.1 0.00 0.00 0.00 87 1014.6
20260905050518 21 79 3.2 14.5 0.00 0.00 0.00 87 1014.7
20260905050017 21 67 4.8 16.1 0.00 0.00 0.00 87 1014.6
20260905045521 21 105 6.4 17.7 0.00 0.00 0.00 87 1014.5
20260905045016 21 109 8.0 17.7 0.00 0.00 0.00 87 1014.6
20260905044516 21 126 8.0 16.1 0.00 0.00 0.00 87 1014.6
20260905044014 21 73 4.8 12.9 0.00 0.00 0.00 86 1014.8
20260905043518 21 79 4.8 14.5 0.00 0.00 0.00 86 1014.7
20260905043018 21 100 4.8 16.1 0.00 0.00 0.00 86 1014.9
20260905042514 21 94 6.4 16.1 0.00 0.00 0.00 86 1014.8
20260905042014 21 69 6.4 14.5 0.00 0.00 0.00 85 1014.8
20260905041514 22 82 6.4 14.5 0.00 0.00 0.00 85 1014.8
20260905041016 22 84 3.2 12.9 0.00 0.00 0.00 85 1014.8
20260905040514 22 96 4.8 14.5 0.00 0.00 0.00 85 1014.8
20260905040018 22 59 4.8 16.1 0.00 0.00 0.00 85 1014.6
20260905035513 22 105 4.8 16.1 0.00 0.00 0.00 84 1014.5
20260905035014 22 77 8.0 16.1 0.00 0.00 0.00 84 1014.5
20260905034515 22 99 8.0 16.1 0.00 0.00 0.00 84 1014.5
20260905034012 22 93 9.7 17.7 0.00 0.00 0.00 83 1014.4
20260905033512 22 99 9.7 17.7 0.00 0.00 0.00 83 1014.4
20260905033012 22 73 9.7 16.1 0.00 0.00 0.00 83 1014.5
20260905032512 23 55 8.0 14.5 0.00 0.00 0.00 82 1014.6
20260905032012 23 134 8.0 16.1 0.00 0.00 0.00 82 1014.8
20260905031516 23 86 4.8 16.1 0.00 0.00 0.00 81 1014.7
20260905031012 23 67 8.0 16.1 0.00 0.00 0.00 81 1014.7
20260905030511 23 117 4.8 9.7 0.00 0.00 0.00 81 1014.7
20260905030011 23 87 3.2 11.3 0.00 0.00 0.00 80 1014.8
20260905025510 23 124 3.2 11.3 0.00 0.00 0.00 79 1014.9
20260905025009 23 38 3.2 12.9 0.00 0.00 0.00 79 1014.7
20260905024513 23 123 4.8 14.5 0.00 0.00 0.00 79 1014.7
20260905024007 23 65 4.8 14.5 0.00 0.00 0.00 78 1014.5
20260905023507 23 69 6.4 14.5 0.00 0.00 0.00 77 1014.5
20260905023016 24 80 6.4 14.5 0.00 0.00 0.00 77 1014.5
20260905022507 24 98 6.4 12.9 0.00 0.00 0.00 76 1014.4
20260905022007 24 79 6.4 12.9 0.00 0.00 0.00 75 1014.5
20260905021507 25 106 6.4 12.9 0.00 0.00 0.00 74 1014.4
20260905021006 25 91 6.4 12.9 0.00 0.00 0.00 73 1014.3
20260905020504 25 90 6.4 14.5 0.00 0.00 0.00 72 1014.2
20260905020004 25 88 4.8 14.5 0.00 0.00 0.00 71 1014.1
20260905015505 25 83 6.4 11.3 0.00 0.00 0.00 70 1014.0
20260905015005 26 69 6.4 9.7 0.00 0.00 0.00 69 1014.0
20260905014504 26 73 3.2 11.3 0.00 0.00 0.00 68 1014.0
20260905014003 26 115 6.4 12.9 0.00 0.00 0.00 67 1013.9
20260905013504 26 78 4.8 14.5 0.00 0.00 0.00 66 1013.7
20260905013006 26 107 6.4 14.5 0.00 0.00 0.00 66 1013.6
20260905012503 26 74 4.8 12.9 0.00 0.00 0.00 64 1013.6
20260905012003 26 78 6.4 12.9 0.00 0.00 0.00 64 1013.4
20260905011503 27 103 8.0 12.9 0.00 0.00 0.00 64 1013.4
20260905011004 27 85 3.2 11.3 0.00 0.00 0.00 63 1013.4
20260905010501 27 69 4.8 8.0 0.00 0.00 0.00 63 1013.4
20260905010002 27 81 3.2 11.3 0.00 0.00 0.00 63 1013.4
20260905005502 27 103 4.8 11.3 0.00 0.00 0.00 63 1013.5
20260905005002 27 85 3.2 9.7 0.00 0.00 0.00 63 1013.4
20260905004502 27 98 3.2 12.9 0.00 0.00 0.00 63 1013.5
20260905004001 27 71 6.4 12.9 0.00 0.00 0.00 62 1013.5
20260905003501 28 98 4.8 11.3 0.00 0.00 0.00 62 1013.4
20260905003008 28 105 3.2 12.9 0.00 0.00 0.00 61 1013.4
20260905002501 28 106 4.8 12.9 0.00 0.00 0.00 60 1013.3
20260905002003 28 107 4.8 14.5 0.00 0.00 0.00 59 1013.3
20260905001501 28 93 6.4 14.5 0.00 0.00 0.00 58 1013.2
20260905001100 28 97 4.8 14.5 0.00 0.00 0.00 57 1013.3
20260905000604 28 90 6.4 14.5 0.00 0.00 0.00 58 1013.3
20260905000100 28 107 8.0 16.1 0.00 0.00 0.00 57 1013.3
20260904235600 29 72 8.0 16.1 0.00 0.00 0.00 57 1013.1
20260904235104 29 111 8.0 14.5 0.00 0.00 0.00 57 1013.1
20260904234600 29 114 8.0 14.5 0.00 0.00 0.00 56 1013.1
20260904234100 29 65 4.8 14.5 0.00 0.00 0.00 57 1013.0
20260904233600 29 69 6.4 14.5 0.00 0.00 0.00 57 1013.2
20260904233059 29 105 6.4 12.9 0.00 0.00 0.00 56 1013.0
20260904232559 29 101 4.8 12.9 0.00 0.00 0.00 55 1013.1
20260904232058 29 96 6.4 14.5 0.00 0.00 0.00 55 1013.0
20260904231559 29 78 6.4 14.5 0.00 0.00 0.00 55 1013.0
20260904231058 29 95 6.4 14.5 0.00 0.00 0.00 55 1013.1
20260904230558 30 107 4.8 14.5 0.00 0.00 0.00 55 1013.2
20260904230109 30 71 4.8 14.5 0.00 0.00 0.00 54 1013.2
20260904225558 30 51 6.4 14.5 0.00 0.00 0.00 53 1013.0
20260904225058 30 119 4.8 12.9 0.00 0.00 0.00 53 1013.0
20260904224620 30 84 4.8 11.3 0.00 0.00 0.00 53 1013.2
20260904224057 30 94 4.8 11.3 0.00 0.00 0.00 53 1013.2
20260904223558 30 77 1.6 12.9 0.00 0.00 0.00 53 1013.3
20260904223109 30 10 3.2 14.5 0.00 0.00 0.00 53 1013.2
20260904222558 30 64 6.4 17.7 0.00 0.00 0.00 53 1013.2
20260904222057 30 131 4.8 17.7 0.00 0.00 0.00 52 1013.1
20260904221624 30 171 4.8 9.7 0.00 0.00 0.00 51 1013.1
20260904221056 30 115 1.6 16.1 0.00 0.00 0.00 51 1013.2
20260904220556 30 115 8.0 14.5 0.00 0.00 0.00 52 1013.3
20260904220056 30 118 3.2 9.7 0.00 0.00 0.00 53 1013.1
20260904215559 30 113 1.6 12.9 0.00 0.00 0.00 53 1013.2
20260904215058 30 126 6.4 12.9 0.00 0.00 0.00 53 1013.2
20260904214555 30 67 4.8 11.3 0.00 0.00 0.00 53 1013.1
20260904214055 30 56 6.4 11.3 0.00 0.00 0.00 52 1013.2
20260904213555 30 46 4.8 9.7 0.00 0.00 0.00 53 1013.2
20260904213059 30 355 3.2 9.7 0.00 0.00 0.00 52 1013.2
20260904212555 30 42 6.4 12.9 0.00 0.00 0.00 51 1013.3
20260904212058 30 97 1.6 12.9 0.00 0.00 0.00 52 1013.3
20260904211555 30 95 6.4 12.9 0.00 0.00 0.00 52 1013.2
20260904211054 30 65 4.8 9.7 0.00 0.00 0.00 53 1013.4
20260904210554 30 38 4.8 17.7 0.00 0.00 0.00 54 1013.3
20260904210057 30 49 8.0 17.7 0.00 0.00 0.00 54 1013.3
20260904205554 30 48 6.4 12.9 0.00 0.00 0.00 54 1013.4
20260904205053 30 94 4.8 14.5 0.00 0.00 0.00 53 1013.4
20260904204553 30 65 6.4 16.1 0.00 0.00 0.00 53 1013.5
20260904204056 30 79 8.0 16.1 0.00 0.00 0.00 53 1013.5
20260904203554 30 67 6.4 14.5 0.00 0.00 0.00 54 1013.5
20260904203052 30 98 4.8 14.5 0.00 0.00 0.00 54 1013.6
20260904202553 30 68 4.8 14.5 0.00 0.00 0.00 54 1013.6
20260904202052 30 68 4.8 14.5 0.00 0.00 0.00 54 1013.7
20260904201603 30 79 1.6 11.3 0.00 0.00 0.00 54 1013.5
20260904201050 30 113 4.8 14.5 0.00 0.00 0.00 53 1013.7
20260904200550 30 105 4.8 12.9 0.00 0.00 0.00 54 1013.7
20260904200109 30 67 4.8 14.5 0.00 0.00 0.00 54 1013.6
20260904195549 30 15 4.8 14.5 0.00 0.00 0.00 54 1013.6
20260904195049 30 51 3.2 11.3 0.00 0.00 0.00 55 1013.6
20260904194552 30 100 6.4 14.5 0.00 0.00 0.00 54 1013.6
20260904194048 30 82 8.0 14.5 0.00 0.00 0.00 55 1013.6
20260904193548 30 81 4.8 12.9 0.00 0.00 0.00 54 1013.7
20260904193048 30 56 3.2 12.9 0.00 0.00 0.00 56 1013.8
20260904192547 30 36 4.8 14.5 0.00 0.00 0.00 55 1013.9
20260904192049 30 84 8.0 16.1 0.00 0.00 0.00 55 1013.9
20260904191548 29 103 9.7 16.1 0.00 0.00 0.00 56 1013.9
20260904191045 29 111 6.4 17.7 0.00 0.00 0.00 54 1013.9
20260904190544 29 96 8.0 17.7 0.00 0.00 0.00 58 1013.9
20260904190043 29 83 4.8 16.1 0.00 0.00 0.00 57 1013.9
20260904185543 29 80 6.4 16.1 0.00 0.00 0.00 56 1014.0
20260904185045 28 113 1.6 16.1 0.00 0.00 0.00 61 1014.0
20260904184543 28 66 8.0 19.3 0.00 0.00 0.00 59 1014.1
20260904184041 29 105 4.8 12.9 0.00 0.00 0.00 60 1014.1
20260904183541 28 59 3.2 16.1 0.00 0.00 0.00 61 1014.2
20260904183042 28 16 4.8 11.3 0.00 0.00 0.00 60 1014.2
20260904182539 28 42 3.2 11.3 0.00 0.00 0.00 59 1014.1
20260904182039 28 355 4.8 12.9 0.00 0.00 0.00 59 1014.1
20260904181538 28 360 3.2 9.7 0.00 0.00 0.00 62 1014.1
20260904181037 28 74 4.8 16.1 0.00 0.00 0.00 61 1014.2
20260904180536 28 360 6.4 16.1 0.00 0.00 0.00 62 1014.2
20260904180037 27 35 4.8 17.7 0.00 0.00 0.00 62 1014.1
20260904175539 27 49 4.8 17.7 0.00 0.00 0.00 63 1014.2
20260904175034 27 24 4.8 14.5 0.00 0.00 0.00 64 1014.2
20260904174533 28 54 8.0 14.5 0.00 0.00 0.00 64 1014.2
20260904174032 27 304 1.6 16.1 0.00 0.00 0.00 65 1014.1
20260904173531 27 349 3.2 19.3 0.00 0.00 0.00 65 1014.1
20260904173030 27 17 9.7 19.3 0.00 0.00 0.00 66 1014.1
20260904172530 27 21 6.4 14.5 0.00 0.00 0.00 67 1014.1
20260904172028 27 25 4.8 16.1 0.00 0.00 0.00 66 1014.1
20260904171551 27 92 6.4 16.1 0.00 0.00 0.00 67 1014.1
20260904171024 26 10 6.4 14.5 0.00 0.00 0.00 68 1014.1
20260904170528 26 22 3.2 16.1 0.00 0.00 0.00 69 1014.0
20260904170022 26 57 4.8 16.1 0.00 0.00 0.00 69 1014.2
20260904165525 26 35 6.4 12.9 0.00 0.00 0.00 69 1014.1
20260904165019 26 21 6.4 12.9 0.00 0.00 0.00 71 1014.1
20260904164520 25 331 3.2 9.7 0.00 0.00 0.00 72 1014.2
20260904164021 25 35 3.2 12.9 0.00 0.00 0.00 72 1014.1
20260904163517 26 15 3.2 12.9 0.00 0.00 0.00 74 1014.0
20260904163036 25 15 1.6 9.7 0.00 0.00 0.00 74 1014.0
20260904162515 25 355 3.2 9.7 0.00 0.00 0.00 75 1014.0
20260904162016 25 5 3.2 9.7 0.00 0.00 0.00 75 1014.1
20260904161512 25 46 4.8 12.9 0.00 0.00 0.00 76 1014.1
20260904161010 25 5 3.2 16.1 0.00 0.00 0.00 77 1014.1
20260904160509 24 16 6.4 16.1 0.00 0.00 0.00 78 1014.1
20260904160008 24 5 4.8 12.9 0.00 0.00 0.00 80 1014.0
20260904155506 23 88 4.8 14.5 0.00 0.00 0.00 78 1014.0
20260904155005 23 333 3.2 14.5 0.00 0.00 0.00 80 1013.9
20260904154505 23 11 4.8 12.9 0.00 0.00 0.00 81 1013.8
20260904154003 23 84 4.8 11.3 0.00 0.00 0.00 79 1013.8
20260904153502 23 53 3.2 11.3 0.00 0.00 0.00 80 1013.8
20260904153115 23 5 3.2 11.3 0.00 0.00 0.00 81 1013.9
20260904152558 23 24 3.2 11.3 0.00 0.00 0.00 81 1013.8
20260904152057 23 355 4.8 12.9 0.00 0.00 0.00 81 1013.8
20260904151556 23 9 4.8 12.9 0.00 0.00 0.00 82 1013.9
20260904151054 22 9 1.6 9.7 0.00 0.00 0.00 82 1013.9
20260904150552 22 24 3.2 8.0 0.00 0.00 0.00 83 1013.9
20260904150053 22 343 1.6 8.0 0.00 0.00 0.00 84 1013.9
20260904145549 22 335 3.2 8.0 0.00 0.00 0.00 85 1013.8
20260904145049 21 9 3.2 6.4 0.00 0.00 0.00 84 1013.8
20260904144554 22 16 1.6 4.8 0.00 0.00 0.00 84 1013.8
20260904144045 21 73 1.6 6.4 0.00 0.00 0.00 85 1013.7
20260904143544 21 18 1.6 6.4 0.00 0.00 0.00 87 1013.9
20260904143054 21 51 1.6 6.4 0.00 0.00 0.00 87 1013.7
20260904142541 20 19 1.6 8.0 0.00 0.00 0.00 90 1013.8
20260904142040 20 5 4.8 8.0 0.00 0.00 0.00 90 1013.8
20260904141540 19 43 3.2 8.0 0.00 0.00 0.00 90 1013.9
20260904141036 19 20 1.6 8.0 0.00 0.00 0.00 91 1013.9
20260904140538 19 15 0.0 9.7 0.00 0.00 0.00 91 1013.7
20260904140040 18 5 3.2 9.7 0.00 0.00 0.00 92 1013.7
20260904135537 18 24 3.2 9.7 0.00 0.00 0.00 93 1013.6
20260904135035 18 5 1.6 6.4 0.00 0.00 0.00 93 1013.7
20260904134534 18 5 1.6 6.4 0.00 0.00 0.00 94 1013.7
20260904134034 18 341 3.2 6.4 0.00 0.00 0.00 94 1013.6
20260904133535 17 360 0.0 4.8 0.00 0.00 0.00 94 1013.7
20260904133033 17 335 0.0 6.4 0.00 0.00 0.00 95 1013.6
20260904132534 17 18 1.6 6.4 0.00 0.00 0.00 95 1013.7
20260904132033 17 350 0.0 4.8 0.00 0.00 0.00 95 1013.6
20260904131534 17 330 0.0 4.8 0.00 0.00 0.00 95 1013.7
20260904131030 17 360 0.0 8.0 0.00 0.00 0.00 95 1013.5
20260904130531 17 5 3.2 8.0 0.00 0.00 0.00 95 1013.4
20260904130029 17 5 1.6 8.0 0.00 0.00 0.00 95 1013.1
20260904125529 16 19 1.6 8.0 0.00 0.00 0.00 95 1013.2
20260904125031 16 13 1.6 8.0 0.00 0.00 0.00 95 1013.2
20260904124528 16 23 0.0 4.8 0.00 0.00 0.00 95 1013.1
20260904124031 16 18 1.6 6.4 0.00 0.00 0.00 95 1013.0
20260904123531 16 340 1.6 4.8 0.00 0.00 0.00 95 1013.1
20260904123027 16 333 1.6 4.8 0.00 0.00 0.00 95 1013.1
20260904122527 16 333 0.0 4.8 0.00 0.00 0.00 95 1013.1
20260904122026 16 331 0.0 8.0 0.00 0.00 0.00 95 1013.0
20260904121524 16 331 0.0 8.0 0.00 0.00 0.00 95 1012.8
20260904121021 16 360 0.0 4.8 0.00 0.00 0.00 95 1012.7
20260904120521 16 5 1.6 6.4 0.00 0.00 0.00 95 1012.6
20260904120032 16 355 1.6 8.0 0.00 0.00 0.00 95 1012.4
20260904115520 16 22 3.2 9.7 0.00 0.00 0.00 95 1012.4
20260904115021 16 355 3.2 6.4 0.00 0.00 0.00 95 1012.3
20260904114520 16 348 0.0 4.8 0.00 0.00 0.00 95 1012.4
20260904114020 16 360 0.0 8.0 0.00 0.00 0.00 95 1012.4
20260904113520 16 341 1.6 4.8 0.00 0.00 0.00 95 1012.4
20260904113019 16 337 1.6 6.4 0.00 0.00 0.00 95 1012.5
20260904112517 16 348 0.0 6.4 0.00 0.00 0.00 95 1012.4
20260904112017 16 9 0.0 4.8 0.00 0.00 0.00 95 1012.2
20260904111521 16 5 0.0 4.8 0.00 0.00 0.00 94 1012.2
20260904111016 16 5 0.0 6.4 0.00 0.00 0.00 94 1012.3
20260904110515 16 355 0.0 6.4 0.00 0.00 0.00 94 1012.1
20260904110015 16 342 1.6 8.0 0.00 0.00 0.00 94 1012.1
20260904105515 16 32 1.6 8.0 0.00 0.00 0.00 95 1012.1
20260904105014 16 22 3.2 9.7 0.00 0.00 0.00 94 1012.1
20260904104513 16 5 3.2 9.7 0.00 0.00 0.00 94 1011.9
20260904104016 16 5 3.2 9.7 0.00 0.00 0.00 94 1011.8
20260904103518 16 342 1.6 6.4 0.00 0.00 0.00 94 1012.0
20260904103013 16 9 0.0 4.8 0.00 0.00 0.00 94 1012.0
20260904102513 16 9 0.0 6.4 0.00 0.00 0.00 94 1012.0
20260904102012 16 333 1.6 9.7 0.00 0.00 0.00 94 1012.0
20260904101517 16 347 3.2 9.7 0.00 0.00 0.00 94 1011.8
20260904101018 17 338 3.2 8.0 0.00 0.00 0.00 94 1011.8
20260904100510 17 35 3.2 8.0 0.00 0.00 0.00 94 1011.7
20260904100010 17 355 1.6 8.0 0.00 0.00 0.00 94 1011.7
20260904095509 17 332 3.2 9.7 0.00 0.00 0.00 94 1011.6
20260904095007 17 340 3.2 8.0 0.00 0.00 0.00 93 1011.6
20260904094506 17 11 0.0 12.9 0.00 0.00 0.00 93 1011.5
20260904094006 17 335 3.2 12.9 0.00 0.00 0.00 94 1011.4
20260904093508 17 24 1.6 12.9 0.00 0.00 0.00 93 1011.4
20260904093006 17 19 3.2 9.7 0.00 0.00 0.00 93 1011.4
20260904092505 17 30 3.2 9.7 0.00 0.00 0.00 93 1011.4
20260904092005 17 360 3.2 9.7 0.00 0.00 0.00 93 1011.4